COSMOS 1275 DEB, 42233

Orbit data source: Space-Track

COSMOS 1275 DEB, 42233 is space debris in LEO originally from a launch on Thu, 04 Jun 1981 UTC launched from the Plesetsk Missile And Space Complex (PKMTR). Debris objects in space refer to the collection of defunct objects orbiting the Earth. Examples of debris include non-operational satellites, rocket bodies, and fragments generated from explosions, collisions, or faulty payload assembly.

Loading next visibility...
Identifier
42233, 1981-053UZ
Orbit
LEO
Last TLE update
4 hours ago
Origin
Manufacturer
Unknown
Mission
Spacecraft
Bus & Motor
Unknown
Mass
Unknown
Launch date (UTC)
1981-06-04 (44 years ago)
Launch vehicle
Unknown
Launch site
Plesetsk Missile And Space Complex (PKMTR)
Object type
Payload
Rocket body
Debris
Shape & HBR
Unknown
Radar Cross Section
Small (<0.1 m²)

Expand to show TLE details & history

TLE from 4 hours ago
0 COSMOS 1275 DEB
1 42233U 81053UZ  25199.82014296  .00000877  00000-0  97745-3 0  9996
2 42233  83.0397 236.0071 0130045 345.1897  14.5459 13.66797766760655
Epoch: 2025-07-18T19:41Z
TLE epoch observation values (Epoch: 2025-07-18T19:41:00.351Z)
Latitude
-0.00003°
Longitude
3.88952°
Altitude
921.03 km
Speed
7.438 km/s
True Right ascension
15h 44m 01s
True Declination
0° 00' 00"
Sunlit
Object was in daylight at epoch
Visualization orbit readout
Latitude
80.18666°
Longitude
48.37214°
Altitude
1,037.066 km
Speed
7.334 km/s
Apparent Right ascension
23h 26m 42s
Apparent Declination
31° 55' 41"
Sunlit
Object is in daylight
Visualization observer readout
Local Sidereal Time
12:23:25
Azimuth
12.551° NNE
Elevation
-16.965°
Doppler factor
1
Orbital elements
Apogee altitude
1,104.302 km
Perigee altitude
912.189 km
Semi-major axis
7,386.383 km
Eccentricity
0.013
Inclination
83.0397°
RAAN
236.0071°
Arg. of periapsis
345.1897°
True anomaly
14.92615°
Mean anomaly
14.5459°
Eccentric anomaly
14.73542°
Mean motion
3.41897 °/min
Orbital period
105.29 mins
BSTAR
0.00097745
Loading maneuver chart data...
Loading SW <> Apogee altitude chart data...
Loading historical data...
Loading historical data...
Loading historical data...
Loading historical data...
Loading historical data...
Loading historical data...
Loading historical data...
|